KO4FRZ Weather Reports


Display with metric or nautical units.
time (UTC)temp
F
wind
direction
speed
MPH
gust
MPH
rain 1hr
in
rain 24hr
in
rain mn
in
humidity
%
barometer
mb
20260504160103 78 44 3.0 7.0 0.00 0.00 0.00 51 1017.0
20260504151101 78 61 4.0 7.0 0.00 0.00 0.00 49 1017.0
20260504150601 78 62 5.0 8.0 0.00 0.00 0.00 52 1017.0
20260504141100 75 71 4.0 6.0 0.00 0.00 0.00 58 1017.0
20260504140601 75 35 6.0 12.0 0.00 0.00 0.00 57 1017.0
20260504130601 71 53 4.0 7.0 0.00 0.00 0.00 69 1017.0
20260504110600 66 29 2.0 3.0 0.00 0.00 0.00 84 1016.0
20260504100600 67 58 1.0 3.0 0.00 0.00 0.00 81 1016.0
20260504081628 69 52 1.0 3.0 0.00 0.00 0.00 78 1016.0
20260504081100 69 49 2.0 4.0 0.00 0.00 0.00 79 1016.0
20260504080600 69 38 2.0 4.0 0.00 0.00 0.00 79 1016.0
20260504050600 69 49 2.0 4.0 0.00 0.00 0.00 79 1017.0
20260504045600 69 61 3.0 4.0 0.00 0.00 0.00 78 1017.0
20260504045100 69 51 0.0 2.0 0.00 0.00 0.00 80 1017.0
20260504044601 69 61 0.0 0.0 0.00 0.00 0.00 79 1017.0
20260504044102 69 59 1.0 3.0 0.00 0.00 0.00 79 1017.0
20260504043601 69 56 1.0 3.0 0.00 0.00 0.00 79 1017.0
20260504043101 69 34 1.0 2.0 0.00 0.00 0.00 79 1017.0
20260504042600 69 0 0.0 0.0 0.00 0.00 0.00 80 1017.0
20260504042101 69 26 0.0 2.0 0.00 0.00 0.00 80 1017.0
20260504041601 69 31 0.0 2.0 0.00 0.00 0.00 80 1017.0
20260504041101 69 0 0.0 0.0 0.00 0.00 0.00 79 1017.0
20260504040601 69 0 0.0 0.0 0.00 0.00 0.00 80 1017.0
20260504040100 69 49 0.0 0.0 0.00 0.00 0.00 80 1017.0
20260504035601 69 54 0.0 2.0 0.00 0.00 0.10 78 1017.0
20260504035100 69 57 0.0 2.0 0.00 0.00 0.10 80 1017.0
20260504034600 69 49 1.0 3.0 0.00 0.00 0.10 79 1017.0
20260504034101 69 62 0.0 0.0 0.00 0.00 0.10 79 1017.0
20260504033601 69 64 1.0 3.0 0.00 0.00 0.10 78 1017.0
20260504033100 69 50 0.0 2.0 0.00 0.00 0.10 79 1017.0
20260504032600 69 55 1.0 3.0 0.00 0.00 0.10 79 1017.0
20260504032100 70 46 1.0 2.0 0.00 0.00 0.10 79 1017.0
20260504031601 70 48 1.0 2.0 0.00 0.00 0.10 78 1017.0
20260504031100 70 0 0.0 0.0 0.00 0.00 0.10 78 1017.0
20260504030601 70 36 0.0 3.0 0.00 0.00 0.10 76 1017.0
20260504030100 70 49 0.0 2.0 0.00 0.00 0.10 76 1017.0
20260504025600 70 65 0.0 2.0 0.00 0.00 0.10 75 1017.0
20260504025101 70 0 0.0 0.0 0.00 0.00 0.10 77 1017.0
20260504024602 70 40 0.0 2.0 0.00 0.00 0.10 76 1017.0
20260504024101 70 51 0.0 2.0 0.00 0.00 0.10 76 1017.0
20260504023601 70 0 0.0 0.0 0.00 0.00 0.10 76 1017.0
20260504023101 70 0 0.0 0.0 0.00 0.00 0.10 76 1017.0
20260504022600 70 54 1.0 2.0 0.00 0.00 0.10 75 1017.0
20260504022101 70 0 0.0 0.0 0.00 0.00 0.10 75 1017.0
20260504021601 70 92 0.0 2.0 0.00 0.00 0.10 75 1017.0
20260504021100 70 0 0.0 0.0 0.00 0.00 0.10 74 1017.0
20260504020600 71 59 0.0 2.0 0.00 0.00 0.10 74 1017.0
20260504020100 71 0 0.0 0.0 0.00 0.00 0.10 74 1017.0
20260504015600 71 44 0.0 2.0 0.00 0.00 0.10 74 1017.0
20260504015101 71 87 1.0 3.0 0.00 0.00 0.10 74 1017.0
20260504014601 71 0 0.0 0.0 0.00 0.00 0.10 74 1017.0
20260504014100 71 69 0.0 2.0 0.00 0.00 0.10 73 1017.0
20260504013600 71 85 0.0 0.0 0.00 0.00 0.10 73 1017.0
20260504013101 71 0 0.0 0.0 0.00 0.00 0.10 73 1017.0
20260504012600 71 76 0.0 2.0 0.00 0.00 0.10 72 1017.0
20260504012100 71 98 2.0 4.0 0.00 0.00 0.10 72 1017.0
20260504011600 71 61 1.0 2.0 0.00 0.00 0.10 72 1017.0
20260504011100 71 48 0.0 0.0 0.00 0.00 0.10 72 1017.0
20260504010601 71 60 0.0 2.0 0.00 0.00 0.10 72 1017.0
20260504010101 71 84 1.0 3.0 0.00 0.00 0.10 71 1017.0
20260504005600 71 44 1.0 2.0 0.00 0.00 0.10 71 1016.0
20260504005101 72 97 2.0 4.0 0.00 0.00 0.10 70 1016.0
20260504004601 72 78 0.0 2.0 0.00 0.00 0.10 70 1016.0
20260504004101 72 93 2.0 4.0 0.00 0.00 0.10 69 1016.0
20260504003603 72 77 2.0 4.0 0.00 0.00 0.10 69 1016.0
20260504003100 72 96 3.0 5.0 0.00 0.00 0.10 69 1016.0
20260504002600 72 58 2.0 4.0 0.00 0.00 0.10 68 1016.0
20260504002101 72 73 1.0 2.0 0.00 0.00 0.10 68 1016.0
20260504001601 73 83 2.0 4.0 0.00 0.00 0.10 68 1016.0
20260504001100 73 72 1.0 3.0 0.00 0.00 0.10 68 1016.0
20260504000600 73 88 2.0 4.0 0.00 0.00 0.10 68 1016.0
20260504000100 73 94 3.0 5.0 0.00 0.00 0.10 67 1016.0
20260503235600 73 95 2.0 4.0 0.00 0.00 0.10 67 1016.0
20260503235100 73 72 1.0 3.0 0.00 0.00 0.10 67 1016.0
20260503234601 73 97 0.0 2.0 0.00 0.00 0.10 67 1016.0
20260503234100 74 67 3.0 4.0 0.00 0.00 0.10 66 1016.0
20260503233600 74 66 3.0 5.0 0.00 0.00 0.10 66 1016.0
20260503233101 74 62 1.0 3.0 0.00 0.00 0.10 67 1016.0
20260503232600 74 91 1.0 4.0 0.00 0.00 0.10 67 1016.0
20260503232101 74 81 2.0 3.0 0.00 0.00 0.10 67 1016.0
20260503231600 74 88 2.0 3.0 0.00 0.00 0.10 67 1016.0
20260503231100 74 86 3.0 7.0 0.00 0.00 0.10 67 1016.0
20260503230600 74 61 3.0 8.0 0.00 0.00 0.10 67 1016.0
20260503230100 74 97 4.0 5.0 0.00 0.00 0.10 66 1016.0
20260503225601 74 91 4.0 5.0 0.00 0.00 0.10 66 1016.0
20260503225100 74 48 2.0 3.0 0.00 0.00 0.10 66 1016.0
20260503224600 74 93 4.0 6.0 0.00 0.00 0.10 66 1016.0
20260503224100 74 86 4.0 6.0 0.00 0.00 0.10 65 1016.0
20260503223601 75 91 1.0 3.0 0.00 0.00 0.10 66 1016.0
20260503223101 75 75 2.0 5.0 0.00 0.00 0.10 66 1016.0
20260503222601 75 54 3.0 7.0 0.00 0.00 0.10 65 1016.0
20260503222100 75 94 4.0 5.0 0.00 0.00 0.10 65 1016.0
20260503221601 75 96 5.0 8.0 0.00 0.00 0.10 65 1016.0
20260503221100 75 92 2.0 5.0 0.00 0.00 0.10 66 1016.0
20260503220600 75 122 2.0 4.0 0.00 0.00 0.10 65 1016.0
20260503215600 75 117 2.0 6.0 0.00 0.00 0.10 65 1016.0
20260503215100 75 45 2.0 5.0 0.00 0.00 0.10 66 1016.0
20260503214600 75 87 0.0 3.0 0.00 0.00 0.10 65 1015.0
20260503214101 75 69 2.0 4.0 0.00 0.00 0.10 64 1015.0
20260503213601 76 89 3.0 7.0 0.00 0.00 0.10 64 1016.0
20260503213101 76 95 3.0 5.0 0.00 0.00 0.10 64 1015.0
20260503212600 76 77 1.0 4.0 0.00 0.00 0.10 64 1015.0
20260503212100 76 67 2.0 3.0 0.00 0.00 0.10 64 1015.0
20260503211600 76 75 1.0 4.0 0.00 0.00 0.10 64 1016.0
20260503211100 76 104 2.0 4.0 0.00 0.00 0.10 63 1015.0
20260503210600 76 94 2.0 4.0 0.00 0.00 0.10 63 1016.0
20260503210100 76 45 3.0 4.0 0.00 0.00 0.10 64 1016.0
20260503205600 76 59 2.0 6.0 0.00 0.00 0.10 63 1016.0
20260503205100 76 89 2.0 6.0 0.00 0.00 0.10 62 1016.0
20260503204600 77 60 2.0 4.0 0.00 0.00 0.10 62 1016.0
20260503204100 77 55 2.0 5.0 0.00 0.00 0.10 62 1016.0
20260503203600 77 58 3.0 7.0 0.00 0.00 0.10 60 1016.0
20260503203100 77 92 1.0 4.0 0.00 0.00 0.10 61 1016.0
20260503202601 77 58 1.0 2.0 0.00 0.00 0.10 62 1016.0
20260503202101 77 95 2.0 3.0 0.00 0.00 0.10 61 1016.0
20260503201600 77 84 2.0 6.0 0.00 0.00 0.10 60 1016.0
20260503201101 77 78 0.0 3.0 0.00 0.00 0.10 61 1016.0
20260503200601 76 28 0.0 2.0 0.00 0.00 0.10 62 1016.0
20260503200100 77 71 4.0 7.0 0.00 0.00 0.10 61 1016.0
20260503195601 77 72 1.0 3.0 0.00 0.00 0.10 63 1016.0
20260503195100 77 88 4.0 7.0 0.00 0.00 0.10 60 1016.0
20260503194600 77 74 2.0 4.0 0.00 0.00 0.10 60 1016.0
20260503194101 77 68 3.0 4.0 0.00 0.00 0.10 62 1016.0
20260503193601 78 48 4.0 7.0 0.00 0.00 0.10 60 1016.0
20260503193100 78 94 3.0 5.0 0.00 0.00 0.10 58 1016.0
20260503192600 77 56 2.0 4.0 0.00 0.00 0.10 62 1017.0
20260503192100 77 56 2.0 3.0 0.00 0.00 0.10 62 1017.0
20260503191600 77 59 3.0 5.0 0.00 0.00 0.10 62 1017.0
20260503191101 77 96 4.0 7.0 0.00 0.00 0.10 60 1017.0
20260503190600 76 102 3.0 6.0 0.00 0.00 0.10 63 1017.0
20260503185601 76 46 2.0 11.0 0.00 0.00 0.10 64 1017.0
20260503185100 76 71 4.0 6.0 0.00 0.00 0.10 64 1017.0
20260503184600 75 87 3.0 5.0 0.00 0.00 0.10 64 1017.0
20260503184101 75 49 4.0 7.0 0.00 0.00 0.10 66 1017.0
20260503183600 76 30 2.0 4.0 0.00 0.00 0.10 65 1017.0
20260503183101 75 54 3.0 6.0 0.00 0.00 0.10 66 1017.0
20260503182600 75 52 4.0 6.0 0.00 0.00 0.10 66 1017.0
20260503182100 75 31 3.0 6.0 0.00 0.00 0.10 67 1017.0
20260503181601 75 55 3.0 6.0 0.00 0.00 0.10 68 1018.0
20260503181100 74 36 3.0 5.0 0.00 0.00 0.10 69 1018.0
20260503180600 74 41 5.0 7.0 0.00 0.00 0.10 67 1018.0
20260503180100 74 55 4.0 9.0 0.00 0.00 0.10 68 1018.0
20260503175601 74 86 4.0 7.0 0.00 0.00 0.10 68 1018.0
20260503175101 74 65 4.0 5.0 0.00 0.00 0.10 69 1018.0
20260503174601 73 46 5.0 6.0 0.00 0.00 0.10 70 1018.0
20260503174100 73 71 4.0 7.0 0.00 0.00 0.10 70 1018.0
20260503173600 73 64 2.0 6.0 0.00 0.00 0.10 72 1018.0
20260503173101 73 65 4.0 5.0 0.00 0.00 0.10 71 1018.0
20260503172600 72 53 3.0 6.0 0.00 0.00 0.10 72 1018.0
20260503172101 72 60 4.0 6.0 0.00 0.00 0.10 73 1018.0
20260503171601 72 47 6.0 9.0 0.00 0.00 0.10 72 1018.0
20260503171100 72 72 3.0 5.0 0.00 0.00 0.10 72 1018.0
20260503170601 72 67 3.0 6.0 0.00 0.00 0.10 72 1018.0